Home   Weather   South Phoenix   Past weeks
Flag for USA

Past Weather in South Phoenix, Arizona, USA — Yesterday and Last 2 Weeks

Now
63 °F

Clear.


Feels Like: 63 °F
Forecast: 80 / 58 °F
Wind: 7 mph from East

Location: Phoenix Sky Harbor International Airport

Current Time: Apr 6, 2020 at 4:52:00 am

Latest Report: Apr 6, 2020 at 3:51 am


Visibility: 10 mi

Pressure: 29.78 "Hg

Humidity: 30%

Dew Point: 31 °F

Location of South PhoenixLocation

Past Weather in South Phoenix — Graph

°F

South Phoenix Temperature Yesterday

Maximum temperature yesterday: 84 °F (at 3:51 pm)
Minimum temperature yesterday: 59 °F (at 6:51 am)
Average temperature yesterday: 72 °F

High & Low Weather Summary for the Past Weeks

 TemperatureHumidityPressure
High85 °F (Apr 1, 2:51 pm)67% (Mar 23, 6:51 am)30.14 "Hg (Mar 23, 6:51 am)
Low47 °F (Mar 28, 5:51 am)13% (Apr 5, 3:51 pm)29.66 "Hg (Apr 1, 6:51 pm)
Average67 °F34%29.88 "Hg
* Reported Mar 22 2:51 am — Apr 6 2:51 am, South Phoenix. Weather by CustomWeather, © 2020

Note: Actual official high and low records may vary slightly from our data, if they occured in-between our weather recording intervals... More about our weather records

South Phoenix Weather History for the Previous 24 Hours

Scroll right to see more
 ConditionsComfort  
Time TempWeatherWind HumidityBarometerVisibility
2:51 am
Mon, Apr 6
63 °FClear.9 mph30%29.78 "Hg10 mi
1:51 am65 °FClear.No wind28%29.78 "Hg10 mi
12:51 am67 °FClear.12 mph25%29.77 "Hg10 mi
11:51 pm
Sun, Apr 5
68 °FClear.8 mph28%29.77 "Hg10 mi
10:51 pm69 °FClear.5 mph29%29.75 "Hg10 mi
9:51 pm71 °FClear.3 mph27%29.75 "Hg10 mi
8:51 pm74 °FClear.9 mph23%29.73 "Hg10 mi
7:51 pm78 °FPassing clouds.7 mph19%29.70 "Hg10 mi
6:51 pm79 °FPassing clouds.15 mph17%29.69 "Hg10 mi
5:51 pm81 °FPassing clouds.12 mph16%29.68 "Hg10 mi
4:51 pm83 °FPassing clouds.12 mph14%29.67 "Hg10 mi
3:51 pm84 °FPassing clouds.13 mph13%29.68 "Hg10 mi
2:51 pm83 °FPassing clouds.3 mph14%29.70 "Hg10 mi
1:51 pm82 °FPassing clouds.7 mph16%29.73 "Hg10 mi
12:51 pm80 °FPassing clouds.10 mph16%29.76 "Hg10 mi
11:51 am78 °FPassing clouds.14 mph16%29.78 "Hg10 mi
10:51 am76 °FPassing clouds.10 mph19%29.80 "Hg10 mi
9:51 am73 °FPassing clouds.9 mph20%29.81 "Hg10 mi
8:51 am68 °FPassing clouds.6 mph30%29.80 "Hg10 mi
7:51 am63 °FPassing clouds.6 mph35%29.80 "Hg10 mi
6:51 am59 °FPassing clouds.6 mph41%29.79 "Hg10 mi
5:51 am60 °FPassing clouds.5 mph38%29.77 "Hg10 mi
4:51 am62 °FClear.5 mph34%29.76 "Hg10 mi
Weather by CustomWeather, © 2020

See weather overview

Advertising